Weather in Lamutskoye

Russia / Chukotka Autonomous Okrug     65°32′04″N   168°51′13″E
temp.,
°C
wind,
m/s
gust,
m/s
humid.,
%
clouds,
%
prec.,
mm/h
press.,
hPa
HPBL,
m
17 august, wed
wed1700:00+4e71475100 0.0 1014740
03:00+3ene597397 0.0 1014528
06:00+3ene587393 0.0 1014753
09:00+5e6762100 0.0 1014970
12:00+8ese8952100 0.0 10131163
15:00+10ese7845100 0.0 10111278
18:00+10ese7845100 0.0 10101214
21:00+7e4960100 0.0 1011195
18 august, thu
thu1800:00+6ne3366100 0.0 101129
03:00+4ne3374100 0.0 101120
06:00+4ne2275100 0.0 101169
09:00+7ne2262100 0.0 1011518
12:00+10ene2344100 0.0 10091093
15:00+13se3338100 0.0 10081388
18:00+12ese5539100 0.0 10081209
21:00+8e3355100 0.0 101015
19 august, fri
fri1900:00+6ene2260100 0.0 101111
03:00+5ene2267100 0.0 101211
06:00+5ne2268100 0.0 101329
09:00+9ene2353100 0.0 1013583
12:00+13se444263 0.0 10131389
15:00+14se44395 0.0 10121677
18:00+13se54445 0.0 10131461
21:00+8se33665 0.0 101412
20 august, sat
sat2000:00+5se11785 0.0 101510
03:00+4s11815 0.0 101510
06:00+5ese00795 0.0 101610
09:00+10s125853 0.0 1016548
12:00+13s344630 0.0 10141454
15:00+15s554366 0.0 10141682
18:00+14s4545100 0.0 10141497
21:00+9sse226499 0.0 101511
21 august, sun
sun2100:00+7ese117598 0.0 101610
03:00+6ese117921 0.0 101610
06:00+6ene117889 0.0 101710
09:00+10e1165100 0.0 1017188
12:00+10s1263100 0.0 1017288
15:00+10w2271100 0.0 101789
18:00+10wnw1171100 0.1 1017233
21:00+9ene227177 0.0 101844